Regional Weather Roundup
Issued by NWS Boston, MA

Home | Current Version | Previous Version | Text Only | Print | Product List | Glossary On
Versions: 1 2 3 4 5 6 7 8 9 10 11 12 13 14 15 16 17 18 19 20 21 22 23 24 25 26 27 28 29 30 31 32 33 34 35 36 37 38 39 40 41 42 43 44 45 46 47 48 49 50
000
ASUS41 KBOX 282310
RWRBOX

REGIONAL WEATHER ROUNDUP
NATIONAL WEATHER SERVICE TAUNTON MA
700 PM EDT THU AUG 28 2014

NOTE:  "FAIR" INDICATES FEW OR NO CLOUDS BELOW 12,000 FEET WITH NO
SIGNIFICANT WEATHER AND/OR OBSTRUCTIONS TO VISIBILITY.  THE FOLLOWING
OBSERVATION LOCATIONS DO NOT REPORT PRESENT WEATHER...PROVINCETOWN...
SMITHFIELD...BLOCK ISLAND...KEENE...AND OXFORD.

MAZALL-290000-
EASTERN MASSACHUSETTS

CITY           SKY/WX    TMP DP  RH WIND       PRES   REMARKS
BOSTON         PTCLDY    75  45  34 NW15G25   29.87R
BEVERLY        PTCLDY    71  48  43 NW12      29.87R
LAWRENCE       CLEAR     71  47  42 NW8       29.90R
BEDFORD        PTCLDY    68  51  54 NW7       29.88R
BLUE HILL        N/A     71  46  40 NW13G23   29.88R
NORWOOD        CLEAR     73  49  42 NW8       29.87R
MARSHFIELD     CLEAR     73  54  49 N7        29.88R
PLYMOUTH       PTCLDY    74  49  41 NW8       29.86R
TAUNTON        MOCLDY    74  51  44 NW3       29.86R
NEW BEDFORD    PTCLDY    74  53  48 NW6       29.85R
$$

MAZALL-290000-
CAPE COD AND THE ISLANDS

CITY           SKY/WX    TMP DP  RH WIND       PRES   REMARKS
FALMOUTH       CLOUDY    72  57  60 NW5       29.86R
HYANNIS        PTCLDY    71  58  63 NW3       29.84R
CHATHAM        PTCLDY    71  58  63 NW3       29.85R
PROVINCETOWN   PTCLDY    70  57  64 NW10G16   29.85R
NANTUCKET      PTCLDY    71  56  58 N3        29.85R
MARTHAS VNYRD  MOCLDY    71  60  68 CALM      29.86R
$$

MAZALL-290000-
CENTRAL AND WESTERN MASSACHUSETTS

CITY           SKY/WX    TMP DP  RH WIND       PRES   REMARKS
WORCESTER      CLOUDY    67  49  52 NW13      29.93R
FITCHBURG      PTCLDY    71  50  47 N7        29.91R
ORANGE         PTCLDY    68  50  52 NW8       29.93R
SPRINGFIELD    PTCLDY    71  54  53 N6        29.91R
WESTFIELD      PTCLDY    71  53  52 N6        29.92R
NORTH ADAMS    MOCLDY    66  51  58 VRB7      29.95R
PITTSFIELD     CLOUDY    64  53  67 NW8       29.96R
$$

RIZALL-290000-
RHODE ISLAND

CITY           SKY/WX    TMP DP  RH WIND       PRES   REMARKS
PROVIDENCE     MOCLDY    74  50  42 NW15      29.88R
NEWPORT        MOCLDY    75  54  47 NW10      29.87R
BLOCK ISLAND   MOCLDY    73  55  53 NW9       29.89R
SMITHFIELD     MOCLDY    70  48  46 NW7       29.90R
WESTERLY       MOCLDY    75  56  51 NW6       29.89R
$$

CTZALL-290000-
CONNECTICUT

CITY           SKY/WX    TMP DP  RH WIND       PRES   REMARKS
BRADLEY INTL   MOCLDY    73  53  49 NW8       29.91R
HARTFORD       CLOUDY    74  52  46 N7        29.91R
BRIDGEPORT     PTCLDY    76  49  38 NW10      29.92R
DANBURY        CLEAR     72  50  45 N8        29.95R
GROTON         PTCLDY    72  54  53 NW13      29.89R
NEW HAVEN      PTCLDY    77  48  35 NW10      29.91R
CHESTER        MOCLDY    72  55  56 N5        29.93R
MERIDEN        CLEAR     75  50  41 NW9       29.92R
WILLIMANTIC    CLOUDY    73  55  53 N7        29.91R
OXFORD         PTCLDY    72  48  43 NW9       29.96R
$$

MEZ002-015-021-024-NHZ003-005-008-011-012-014-VTZ005-008-290000-
NORTHERN NEW ENGLAND

CITY           SKY/WX    TMP DP  RH WIND       PRES   REMARKS
PORTLAND ME    PTCLDY    68  47  46 NW14G24   29.87R
BANGOR ME      MOCLDY    68  48  48 NW12      29.82R
CONCORD NH     CLEAR     69  48  47 NW8       29.90R
MANCHESTER NH  PTCLDY    72  46  39 NW10G21   29.89R
NASHUA NH      CLEAR     71  49  45 N12       29.91R
PORTSMOUTH NH  PTCLDY    71  47  43 NW15      29.87R
JAFFREY NH     CLEAR     67  51  56 VRB3      29.95R
KEENE NH       PTCLDY    68  46  45 NW3       29.94R
BURLINGTON VT  MOCLDY    67  47  48 NW15      29.98R
MT. WASHINGTON FOG       37  37 100 NW54G60     N/A  VSB 1/16WCI  22
$$

NYZ052-076-290000-
EASTERN NEW YORK

CITY           SKY/WX    TMP DP  RH WIND       PRES   REMARKS
ALBANY         MOCLDY    69  52  54 W15G23    29.97R
NEW YORK CITY  PTCLDY    77  51  40 N14       29.92R
$$

ANZALL-290000-
MARINE OBSERVATIONS

STATION/POSITION TIME  TEMP    WIND        PRES    VSBY  WAVE
                       AIR SEA DIR/SP/G                  HT/PER
                 (UTC) (F)     (DEG/KT/KT) (MB)    (MI)  (FT/S)
BOSTON BUOY      2250   72 69  320/ 17/ 21 1011.0R         3/14
BUZZARDS BAY     2200          170/  4/  5 1011.4R
NANTUCKET SOUND  2250   72 71  330/ 10/ 14 1010.5R         1/15
MASS BAY-STELLWA 2204   72 68  330/ 14/ 16   N/A    1 7/8  2/ 3
ISLE OF SHOALS   2300   70     320/ 22/ 24 1010.6R
S OF BLOCK IS    2208      70                N/A           5/12
$$

......................KEY.........................
  SKY/WX - SKY CONDITION/PRESENT WEATHER
  TMP    - TEMPERATURE IN FAHRENHEIT
  DWPT   - DEWPOINT IN FAHRENHEIT
  RH     - RELATIVE HUMIDITY IN PERCENT
  WIND   - DIRECTION AND SPEED IN MPH
  PRES   - MEAN SEA LEVEL PRESSURE IN INCHES OF HG
  WCI    - WIND CHILL INDEX
  VSB    - VISIBILITY IN MILES
  HX     - HEAT INDEX
  TC     - TEMPERATURE IN CELSIUS
  VRB    - VARIABLE WIND DIRECTION
  N/A    - NOT AVAILABLE



USA.gov is the U.S. government's official web portal to all federal, state and local government web resources and services.